This is the latest recevied weather packets stored in our database for station/object W4MLN-1. If no packets are shown the sender has not sent any weather packets the latest 10 day(s).
| Time | Temp. | Humidity | Pressure | Rain* | Wind** | Luminosity | Snow |
|---|---|---|---|---|---|---|---|
| 1777915777 | 18.33° C | 54% | 1015.8 hPa | 0 mm | - | 821 W/m² | - |
| 1777915478 | 18.89° C | 52% | 1015.7 hPa | 0 mm | - | 766 W/m² | - |
| 1777915177 | 18.33° C | 54% | 1015.7 hPa | 0 mm | - | 898 W/m² | - |
| 1777914878 | 18.33° C | 52% | 1015.7 hPa | 0 mm | - | 906 W/m² | - |
| 1777914577 | 17.78° C | 53% | 1015.8 hPa | 0 mm | - | 872 W/m² | - |
| 1777914278 | 17.78° C | 53% | 1015.8 hPa | 0 mm | - | 863 W/m² | - |
| 1777913975 | 17.22° C | 53% | 1015.8 hPa | 0 mm | - | 765 W/m² | - |
| 1777913672 | 17.22° C | 54% | 1016 hPa | 0 mm | - | 595 W/m² | - |
| 1777913372 | 17.22° C | 54% | 1016 hPa | 0 mm | - | 842 W/m² | - |
| 1777913072 | 17.22° C | 53% | 1016 hPa | 0 mm | - | 888 W/m² | - |
| 1777912772 | 17.78° C | 53% | 1015.9 hPa | 0 mm | - | 929 W/m² | - |
| 1777912472 | 17.22° C | 56% | 1015.9 hPa | 0 mm | - | 801 W/m² | - |
| 1777912172 | 17.22° C | 54% | 1015.9 hPa | 0 mm | - | 840 W/m² | - |
| 1777911872 | 16.67° C | 54% | 1015.9 hPa | 0 mm | - | 902 W/m² | - |
| 1777911573 | 16.67° C | 54% | 1016 hPa | 0 mm | - | 844 W/m² | - |
| 1777911272 | 17.22° C | 53% | 1016 hPa | 0 mm | - | 822 W/m² | - |
| 1777910970 | 16.67° C | 57% | 1016.1 hPa | 0 mm | - | 862 W/m² | - |
| 1777910669 | 16.67° C | 57% | 1016.1 hPa | 0 mm | - | 930 W/m² | - |
| 1777910367 | 16.67° C | 55% | 1016.2 hPa | 0 mm | - | 881 W/m² | - |
| 1777910067 | 16.11° C | 58% | 1016.3 hPa | 0 mm | - | 933 W/m² | - |
| 1777909768 | 15.56° C | 59% | 1016.3 hPa | 0 mm | - | 963 W/m² | - |
| 1777909467 | 15.56° C | 59% | 1016.3 hPa | 0 mm | - | 933 W/m² | - |
| 1777909168 | 15.56° C | 60% | 1016.3 hPa | 0 mm | - | 795 W/m² | - |
| 1777908867 | 15° C | 61% | 1016.6 hPa | 0 mm | - | 976 W/m² | - |
| 1777908568 | 14.44° C | 60% | 1016.9 hPa | 0 mm | - | 915 W/m² | - |
* Rain latest hour (hover to see other rain measurements)
** Current wind speed in m/s (hover to see current wind gust speed)